Zurück zum Katalog

GEESAT 5-02

AktivKommunikationLEO
NORAD 65551·PAYLOAD·🇨🇳 China

Gestartet Sep 8, 2025 von Yellow Sea Launch Area

Loading…

Nächste Überflüge (nächste 24 Stunden)

TLE

AktuellSource: Space-Track

Epoche: Sep 14, 2026, 06:14 UTC

1 65551U 25201B   26257.26034665  .00001128  00000-0  15958-3 0  9999
2 65551  49.9880 346.1178 0008134 305.9958  54.0226 14.84404735 55028

Verfolge GEESAT 5-02 in Echtzeit mit AllMySat

Download on the App Store